FENGYUN 1C DEB, 38798

Orbit data source: Space-Track

FENGYUN 1C DEB, 38798 is space debris in SSO originally from a launch on Mon, 10 May 1999 UTC launched from the Taiyaun Space Center, China (TSC). Fengyun 1C debris stems from the Chinese weather satellite Fengyun-1C, which was intentionally destroyed by a Chinese anti-satellite missile in 2007. This event dramatically increased the amount of space debris, with thousands of trackable fragments posing hazards to satellites and human spaceflight. The Fengyun 1C debris cloud has become a focal point in discussions about space sustainability and the need for international regulations to prevent the creation of new debris.

Loading next visibility...
Identifier
38798, 1999-025EUN
Orbit
SSO
Country
Flag of CNCN / PRC
Related business
Manufacturer
Unknown
Mission
Spacecraft
Bus & Motor
Unknown
Mass
Unknown
Launch date (UTC)
1999-05-10 (27 years ago)
Launch vehicle
Unknown
Launch site
Taiyaun Space Center, China (TSC)
Object type
Payload
Rocket body
Debris
Shape & HBR
Unknown shape, 0.1 m
Radar Cross Section
Small (<0.1 m²)

Expand to show TLE details & history
Last TLE update: 4 days ago

TLE from 4 days ago
0 FENGYUN 1C DEB
1 38798U 99025EUN 26235.08652043  .00000657  00000-0  94639-3 0  9998
2 38798  98.8262 329.5084 0409291 194.9484 163.9240 13.29226153221001
Epoch: 2026-08-23T02:04Z
TLE epoch observation values (Epoch: 2026-08-23T02:04:35.365Z)
Latitude
-0.00004°
Longitude
-33.02657°
Altitude
1,449.497 km
Speed
6.995 km/s
True Right ascension
21h 58m 02s
True Declination
0° 00' 00"
Sunlit
Object was in full shadow at epoch
Visualization orbit readout
Latitude
Unknown
Longitude
Unknown
Altitude
Unknown
Speed
Unknown
Apparent Right ascension
Unknown
Apparent Declination
Unknown
Sunlit
N/A
Visualization observer readout
Local Sidereal Time
06:21:10
Azimuth
Unknown
Elevation
Unknown
Doppler factor
Unknown
Orbital elements
Apogee altitude
1,454.959 km
Perigee altitude
838.968 km
Semi-major axis
7,525.1 km
Eccentricity
0.04093
Inclination
98.8262°
RAAN
329.5084°
Arg. of periapsis
194.9484°
True anomaly
165.1617°
Mean anomaly
163.924°
Eccentric anomaly
164.54877°
Mean motion
3.32487 °/min
Orbital period
108.27 mins
BSTAR
0.00094639
Loading maneuver chart data...
Computing Atmospheric mass density...

Documentation

Showing up to 5 results
|